Location: ????????
(55.6333°N, 37.7000°E)
Time: 02:44:51
(UTC+00:00)

Cosmos 1666 Rocket - Pass Details

Date: 19 May 2025
Orbit: 599 x 625 km, 82.5° (Epoch: 14 June)

Event Time Altitude Azimuth Distance (km) Brightness Sun altitude
Rises 22:16:06 0° 343° (NNW) 2,880 8.1 -13.6°
Reaches altitude 10° 22:18:26 10° 335° (NNW) 1,975 6.9 -13.6°
Maximum altitude 22:22:26 37° 268° (W) 963 4.4 -13.4°
Enters shadow 22:24:57 20° 213° (SSW) 1,443 4.9 -13.4°
